Terminal Aerodrome Forecast
Issued by NWS Chicago, IL

Home | Current Version | Previous Version | Text Only | Print | Product List | Glossary On
Versions: 1 2 3 4 5 6 7 8 9 10 11 12 13 14 15 16 17 18 19 20 21 22 23 24 25 26 27 28 29 30
000
FTUS43 KLOT 310500 RRA
TAFRFD
TAF
KRFD 310546Z 3106/0106 31011G17KT P6SM SCT025 OVC035
     FM310700 32016G26KT P6SM VCSH SCT010 OVC025
     FM311300 36025G36KT P6SM SCT035
     FM312200 35020G28KT P6SM FEW040
     FM010100 35015KT P6SM FEW040=

USA.gov is the U.S. government's official web portal to all federal, state and local government web resources and services.